Weather History for Thessaloniki, Greece

Change the Weather History Date:

Tuesday, January 22, 2013

  Actual Average Record
Temperature  
Mean Temperature 50 °F -  
Max Temperature 60 °F 51 °F 64 °F (2009)
Min Temperature 40 °F 35 °F 24 °F (2012)
Degree Days  
Heating Degree Days 15    
Moisture  
Dew Point 43 °F    
Average Humidity 73    
Maximum Humidity 93    
Minimum Humidity 39    
Precipitation  
Precipitation 0.00 in 0.05 in - ()
Sea Level Pressure  
Sea Level Pressure 29.65 in    
Wind  
Wind Speed 5 mph ()    
Max Wind Speed 10 mph    
Max Gust Speed -    
Visibility 5.7 miles    
Events      
Averages and records for this station are not official NWS values.
T = Trace of Precipitation, MM = Missing Value Source: Averaged Metar Reports

Daily Weather History Graph

Daily Weather History Graph

Search for Another Location

Airport:

Trip Planner

Search our weather history database for the weather conditions in past years. The results will help you decide how hot, cold, wet, or windy it might be!

Date:

Astronomy

Jan. 22, 2013 Rise Set
Actual Time 7:45 AM EET 5:34 PM EET
Civil Twilight 7:16 AM EET 6:03 PM EET
Nautical Twilight 6:43 AM EET 6:36 PM EET
Astronomical Twilight 6:10 AM EET 7:09 PM EET
Moon 1:42 PM EET (1/22) 3:51 AM EET (1/22)
Length of Visible Light 10h 47m
Length of Day
9h 48m
Waxing Gibbous, 80% of the Moon is Illuminated
Jan 22
Waxing Gibbous
Jan 27
Full
Feb 3
Last Quarter
Feb 10
New
Feb 17
First Quarter

Hourly Weather History & Observations

Time (EET) Temp. Windchill Dew Point Humidity Pressure Visibility Wind Dir Wind Speed Gust Speed Precip Events Conditions
12:20 AM 48.2 °F - 44.6 °F 87% 29.62 in 6.2 mi SSE 4.6 mph - N/A   Partly Cloudy
12:50 AM 48.2 °F - 44.6 °F 87% 29.59 in 6.2 mi ESE 4.6 mph - N/A   Partly Cloudy
1:20 AM 48.2 °F - 44.6 °F 87% 29.59 in 6.2 mi ESE 8.1 mph - N/A   Partly Cloudy
1:50 AM 50.0 °F - 46.4 °F 87% 29.59 in 6.2 mi ESE 9.2 mph - N/A   Partly Cloudy
2:00 AM 50 °F - 46 °F 82% 29.60 in 6 mi ESE 9.2 mph - -   Scattered Clouds
2:20 AM 51.8 °F - 46.4 °F 82% 29.59 in 6.2 mi ESE 9.2 mph - N/A   Partly Cloudy
2:50 AM 51.8 °F - 44.6 °F 76% 29.59 in 6.2 mi SE 6.9 mph - N/A   Partly Cloudy
3:20 AM 51.8 °F - 44.6 °F 76% 29.59 in 6.2 mi SE 6.9 mph - N/A   Partly Cloudy
3:50 AM 46.4 °F 45.2 °F 42.8 °F 87% 29.59 in 3.7 mi Variable 3.5 mph - N/A   Partly Cloudy
4:20 AM 46.4 °F 45.2 °F 42.8 °F 87% 29.59 in 3.1 mi Variable 3.5 mph - N/A   Partly Cloudy
4:50 AM 46.4 °F - 44.6 °F 93% 29.59 in 3.7 mi Calm Calm - N/A   Partly Cloudy
5:20 AM 44.6 °F 43.1 °F 41.0 °F 87% 29.62 in 3.7 mi South 3.5 mph - N/A   Partly Cloudy
5:50 AM 44.6 °F 42.2 °F 41.0 °F 87% 29.62 in 3.1 mi South 4.6 mph - N/A   Partly Cloudy
6:20 AM 41.0 °F - 39.2 °F 93% 29.62 in 3.1 mi Calm Calm - N/A   Partly Cloudy
6:50 AM 41.0 °F 39.0 °F 39.2 °F 93% 29.62 in 3.1 mi SE 3.5 mph - N/A   Partly Cloudy
7:20 AM 42.8 °F 41.1 °F 41.0 °F 93% 29.62 in 4.3 mi Variable 3.5 mph - N/A   Partly Cloudy
7:50 AM 41.0 °F 38.0 °F 39.2 °F 93% 29.65 in 4.3 mi ESE 4.6 mph - N/A   Partly Cloudy
8:00 AM 40 °F - 38 °F 91% 29.65 in 4 mi ESE 4.6 mph - -   Mist
8:20 AM 41.0 °F 35.8 °F 39.2 °F 93% 29.65 in 6.2 mi East 8.1 mph - N/A   Partly Cloudy
8:50 AM 44.6 °F 40.7 °F 41.0 °F 87% 29.65 in 6.2 mi ESE 6.9 mph - N/A   Partly Cloudy
9:20 AM 48.2 °F - 42.8 °F 82% 29.68 in 6.2 mi ESE 5.8 mph - N/A   Scattered Clouds
9:50 AM 51.8 °F - 44.6 °F 76% 29.68 in 6.2 mi SE 4.6 mph - N/A   Scattered Clouds
10:20 AM 55.4 °F - 44.6 °F 67% 29.68 in 6.2 mi ESE 5.8 mph - N/A   Mostly Cloudy
10:50 AM 57.2 °F - 44.6 °F 63% 29.68 in 6.2 mi ESE 4.6 mph - N/A   Mostly Cloudy
11:20 AM 57.2 °F - 46.4 °F 67% 29.68 in 6.2 mi Variable 3.5 mph - N/A   Mostly Cloudy
11:50 AM 57.2 °F - 44.6 °F 63% 29.68 in 6.2 mi Variable 3.5 mph - N/A   Mostly Cloudy
12:20 PM 59.0 °F - 42.8 °F 55% 29.68 in 6.2 mi ESE 4.6 mph - N/A   Mostly Cloudy
12:50 PM 59.0 °F - 42.8 °F 55% 29.65 in 6.2 mi SE 4.6 mph - N/A   Mostly Cloudy
1:20 PM 60.8 °F - 42.8 °F 52% 29.65 in 6.2 mi SE 10.4 mph - N/A   Mostly Cloudy
1:50 PM 59.0 °F - 42.8 °F 55% 29.65 in 6.2 mi SE 6.9 mph - N/A   Mostly Cloudy
2:00 PM 60 °F - 41 °F 39% 29.67 in 6 mi SE 6.9 mph - -   Partly Cloudy
2:20 PM 60.8 °F - 39.2 °F 45% 29.65 in 6.2 mi ESE 5.8 mph - N/A   Mostly Cloudy
2:50 PM 60.8 °F - 41.0 °F 48% 29.65 in 6.2 mi SE 6.9 mph - N/A   Mostly Cloudy
3:20 PM 60.8 °F - 41.0 °F 48% 29.65 in 6.2 mi SE 5.8 mph - N/A   Mostly Cloudy
3:50 PM 59.0 °F - 42.8 °F 55% 29.65 in 6.2 mi SE 6.9 mph - N/A   Mostly Cloudy
4:20 PM 59.0 °F - 44.6 °F 59% 29.65 in 6.2 mi SE 6.9 mph - N/A   Mostly Cloudy
4:50 PM 59.0 °F - 42.8 °F 55% 29.65 in 6.2 mi SE 9.2 mph - N/A   Mostly Cloudy
5:20 PM 59.0 °F - 42.8 °F 55% 29.65 in 6.2 mi SE 6.9 mph - N/A   Mostly Cloudy
5:50 PM 57.2 °F - 42.8 °F 59% 29.65 in 6.2 mi SE 8.1 mph - N/A   Mostly Cloudy
6:20 PM 55.4 °F - 42.8 °F 63% 29.68 in 6.2 mi SE 4.6 mph - N/A   Mostly Cloudy
6:50 PM 57.2 °F - 42.8 °F 59% 29.68 in 6.2 mi SE 6.9 mph - N/A   Mostly Cloudy
7:20 PM 55.4 °F - 42.8 °F 63% 29.68 in 6.2 mi SE 4.6 mph - N/A   Mostly Cloudy
7:50 PM 53.6 °F - 42.8 °F 67% 29.68 in 6.2 mi SE 4.6 mph - N/A   Mostly Cloudy
8:00 PM 54 °F - 43 °F 55% 29.70 in 6 mi SE 4.6 mph - -   Partly Cloudy
8:20 PM 53.6 °F - 42.8 °F 67% 29.68 in 6.2 mi SE 5.8 mph - N/A   Mostly Cloudy
8:50 PM 53.6 °F - 42.8 °F 67% 29.68 in 6.2 mi SE 5.8 mph - N/A   Mostly Cloudy
9:20 PM 53.6 °F - 42.8 °F 67% 29.68 in 6.2 mi SE 5.8 mph - N/A   Mostly Cloudy
9:50 PM 51.8 °F - 46.4 °F 82% 29.68 in 6.2 mi Variable 3.5 mph - N/A   Mostly Cloudy
10:20 PM 51.8 °F - 46.4 °F 82% 29.71 in 6.2 mi Variable 3.5 mph - N/A   Mostly Cloudy
10:50 PM 51.8 °F - 48.2 °F 88% 29.71 in 6.2 mi WNW 5.8 mph - N/A   Mostly Cloudy
11:20 PM 51.8 °F - 48.2 °F 88% 29.71 in 6.2 mi WNW 5.8 mph - N/A   Scattered Clouds
11:50 PM 50.0 °F - 44.6 °F 82% 29.71 in 6.2 mi Variable 3.5 mph - N/A   Scattered Clouds